TimeEET,TemperatureF,Dew PointF,Humidity,Sea Level PressureIn,VisibilityMPH,Wind Direction,Wind SpeedMPH,Gust SpeedMPH,PrecipitationIn,Events,Conditions,WindDirDegrees,DateUTC
12:20 AM,-4.0,-5.8,92,30.30,2.5,West,3.5,-,N/A,,Mist,270,2012-12-27 22:20:00
12:50 AM,-7.6,-9.4,92,30.30,2.5,SSE,3.5,-,N/A,,Mist,150,2012-12-27 22:50:00
1:20 AM,-5.8,-7.6,92,30.30,2.5,Variable,1.2,-,N/A,,Mist,0,2012-12-27 23:20:00
1:50 AM,-5.8,-9.4,84,30.30,2.5,Variable,1.2,-,N/A,,Mist,0,2012-12-27 23:50:00
2:20 AM,-5.8,-9.4,84,30.30,2.5,Variable,2.3,-,N/A,,Mist,0,2012-12-28 00:20:00
2:50 AM,-7.6,-11.2,84,30.30,-9999.0,Variable,1.2,-,N/A,,Mist,0,2012-12-28 00:50:00
3:20 AM,-9.4,-11.2,92,30.27,2.5,Variable,1.2,-,N/A,,Mist,0,2012-12-28 01:20:00
3:50 AM,-7.6,-9.4,92,30.27,2.5,Variable,2.3,-,N/A,,Mist,0,2012-12-28 01:50:00
4:20 AM,-7.6,-9.4,92,30.27,2.2,West,2.3,-,N/A,,Mist,260,2012-12-28 02:20:00
4:50 AM,-5.8,-9.4,84,30.27,-9999.0,SW,2.3,-,N/A,,Mist,230,2012-12-28 02:50:00
5:20 AM,-9.4,-13.0,84,30.27,-9999.0,Calm,Calm,-,N/A,,Mist,0,2012-12-28 03:20:00
5:50 AM,-11.2,-14.8,84,30.27,2.5,Calm,Calm,-,N/A,,Mist,0,2012-12-28 03:50:00
6:20 AM,-7.6,-11.2,84,30.27,-9999.0,Calm,Calm,-,N/A,,Mist,0,2012-12-28 04:20:00
6:50 AM,-11.2,-14.8,84,30.27,1.7,Variable,1.2,-,N/A,,Mist,0,2012-12-28 04:50:00
7:20 AM,-9.4,-13.0,84,30.30,1.6,Calm,Calm,-,N/A,,Mist,0,2012-12-28 05:20:00
7:50 AM,-4.0,-7.6,85,30.27,1.7,Calm,Calm,-,N/A,,Mist,0,2012-12-28 05:50:00
8:00 AM,-5,-6,95,,2,Calm,Calm,,,,Mist,,2012-12-28 06:00:00
8:20 AM,1.4,-0.4,92,30.30,1.6,Calm,Calm,-,N/A,,Mist,0,2012-12-28 06:20:00
8:50 AM,-0.4,-2.2,92,30.27,1.6,Calm,Calm,-,N/A,,Mist,0,2012-12-28 06:50:00
9:20 AM,1.4,-0.4,92,30.27,1.8,NE,2.3,-,N/A,,Mist,40,2012-12-28 07:20:00
9:50 AM,3.2,1.4,92,30.27,1.7,Variable,1.2,-,N/A,,Mist,0,2012-12-28 07:50:00
10:20 AM,6.8,5.0,92,30.24,1.8,Calm,Calm,-,N/A,,Mist,0,2012-12-28 08:20:00
10:50 AM,8.6,6.8,92,30.24,3.7,Variable,2.3,-,N/A,,Unknown,0,2012-12-28 08:50:00
11:20 AM,8.6,6.8,92,30.24,3.7,Variable,2.3,-,N/A,,Mostly Cloudy,0,2012-12-28 09:20:00
11:50 AM,10.4,8.6,92,30.21,3.7,Variable,2.3,-,N/A,,Mostly Cloudy,0,2012-12-28 09:50:00
12:20 PM,10.4,6.8,85,30.21,3.7,East,4.6,-,N/A,,Mostly Cloudy,100,2012-12-28 10:20:00
12:50 PM,12.2,8.6,85,30.21,3.7,East,4.6,-,N/A,,Mostly Cloudy,90,2012-12-28 10:50:00
1:20 PM,12.2,8.6,85,30.21,3.7,Variable,2.3,-,N/A,,Mostly Cloudy,0,2012-12-28 11:20:00
1:50 PM,12.2,8.6,85,30.21,3.7,Variable,2.3,-,N/A,,Overcast,0,2012-12-28 11:50:00
2:00 PM,12,11,93,,4,East,2.3,,,,Mist,100,2012-12-28 12:00:00
2:20 PM,12.2,8.6,85,30.21,3.7,ENE,3.5,-,N/A,,Mostly Cloudy,70,2012-12-28 12:20:00
2:50 PM,14.0,8.6,79,30.21,3.7,NE,2.3,-,N/A,,Mostly Cloudy,40,2012-12-28 12:50:00
3:20 PM,12.2,8.6,85,30.21,3.7,NE,2.3,-,N/A,,Mostly Cloudy,40,2012-12-28 13:20:00
3:50 PM,10.4,6.8,85,30.21,4.3,SSE,2.3,-,N/A,,Mostly Cloudy,160,2012-12-28 13:50:00
4:20 PM,10.4,6.8,85,30.21,3.7,Calm,Calm,-,N/A,,Mostly Cloudy,0,2012-12-28 14:20:00
4:50 PM,10.4,6.8,85,30.21,3.7,SE,3.5,-,N/A,,Mostly Cloudy,140,2012-12-28 14:50:00
5:20 PM,8.6,6.8,92,30.21,3.7,North,2.3,-,N/A,,Mostly Cloudy,10,2012-12-28 15:20:00
5:50 PM,8.6,5.0,85,30.21,3.7,Variable,2.3,-,N/A,,Mostly Cloudy,0,2012-12-28 15:50:00
6:20 PM,8.6,5.0,85,30.21,5.0,Variable,2.3,-,N/A,,Mostly Cloudy,0,2012-12-28 16:20:00
6:50 PM,5.0,3.2,92,30.21,5.0,Variable,1.2,-,N/A,,Mostly Cloudy,0,2012-12-28 16:50:00
7:20 PM,6.8,3.2,85,30.21,5.0,Variable,2.3,-,N/A,,Mostly Cloudy,0,2012-12-28 17:20:00
7:50 PM,3.2,1.4,92,30.21,5.0,Calm,Calm,-,N/A,,Mostly Cloudy,0,2012-12-28 17:50:00
8:00 PM,4,4,97,,5,Calm,Calm,,,,Mist,,2012-12-28 18:00:00
8:20 PM,5.0,3.2,92,30.21,4.3,Calm,Calm,-,N/A,,Mostly Cloudy,0,2012-12-28 18:20:00
8:50 PM,3.2,1.4,92,30.21,4.3,Variable,1.2,-,N/A,,Mostly Cloudy,0,2012-12-28 18:50:00
9:20 PM,5.0,3.2,92,30.21,4.3,Variable,1.2,-,N/A,,Mostly Cloudy,0,2012-12-28 19:20:00
9:50 PM,5.0,3.2,92,30.21,3.7,Variable,1.2,-,N/A,,Mostly Cloudy,0,2012-12-28 19:50:00
10:20 PM,5.0,1.4,85,30.21,3.7,NNW,4.6,-,N/A,,Mostly Cloudy,330,2012-12-28 20:20:00
10:50 PM,6.8,3.2,85,30.21,3.7,Variable,2.3,-,N/A,,Mostly Cloudy,0,2012-12-28 20:50:00
11:20 PM,6.8,3.2,85,30.21,-9999.0,Variable,2.3,-,N/A,,Mostly Cloudy,0,2012-12-28 21:20:00
11:50 PM,6.8,3.2,85,30.21,-9999.0,Variable,2.3,-,N/A,,Mostly Cloudy,0,2012-12-28 21:50:00